Voltar ao catálogo

STARLINK-11422

AtivoComunicaçõesVLEO
NORAD 61944·PAYLOAD·🇺🇸 United States

Lançado Nov 14, 2024 de Vandenberg Space Force Base

Loading…

Próximas Passagens (próximas 24 horas)

TLE

AtualizadoSource: CelesTrak SupGP

Época: Sep 14, 2026, 21:21 UTC

1 61944C 24209F   26257.89006944 -.00039734  00000+0 -32721-3 0  2575
2 61944  53.1571 158.7996 0001098  92.2215 168.8918 15.69736499    13

Acompanhe STARLINK-11422 em tempo real com AllMySat

Download on the App Store